{"data":{"norad_id":65299,"epoch":"2026-09-21T18:48:51.387840Z","epoch_age_seconds":51234,"freshness":"FRESH","line1":"1 65299U 25185C   26264.78392810  .00001188  00000+0  15184-3 0  9999","line2":"2 65299  97.9650 347.9352 0013326 133.5420 226.6903 14.83229588 58163","mean_motion":14.83229588,"eccentricity":0.0013326,"inclination_deg":97.965,"raan_deg":347.9352,"arg_perigee_deg":133.542,"mean_anomaly_deg":226.6903,"bstar":0.00015184,"rev_number":5816,"period_min":97.085441906651,"perigee_km":609.82381436973,"apogee_km":628.47297940952,"semimajor_km":6997.2853968896,"source":"CELESTRAK","updated_at":"2026-09-22T09:00:30.254925Z"}}